#timestamp,LO_Frequency,Hit,StdDev 
1634479215.5,286047031.6,N
1634479235.4,286047034.2,N
1634479255.2,286047040.9,N
1634479275.0,286047045.4,N
1634479276.0,286047045.4,N
1634479295.8,286047048.3,N
1634479315.6,286047053.6,N
1634479335.5,286047054.1,N
1634479355.3,286047058.8,N
1634479375.1,286047062.8,N
1634479395.9,286047062.3,N
1634479415.7,286047063.7,N
1634479435.6,286047066.3,N
1634479455.4,286047063.7,N
1634479475.2,286047063.0,N
1634479495.1,286047062.3,N
1634479496.0,286047062.3,N
1634479515.8,286047066.7,N
1634479535.6,286047065.8,N
1634479585.5,286047072.5,E
1634479595.4,286047042.8,N
1634479615.3,286046997.3,P
1634479635.1,286046987.8,N
1634479655.8,286046985.2,N
1634479675.7,286046983.6,N
1634479695.5,286046984.0,N
1634479715.4,286046980.5,N
1634479735.2,286046978.8,N
1634479755.0,286046964.9,N
1634479755.9,286046964.9,N
1634479775.8,286046958.3,N
1634479795.6,286046955.1,N
1634479815.4,286046956.2,N
1634479835.3,286046955.8,N
1634479855.1,286046959.6,N
1634479875.9,286046958.1,N
1634479895.7,286046959.0,N
1634479915.5,286046960.4,N
1634479935.4,286046963.7,N
1634479955.2,286046965.5,N
1634479975.1,286046968.3,N
1634479976.0,286046968.3,N
1634479995.8,286046968.1,N
1634480015.6,286046968.0,N
1634480035.5,286046968.6,N
1634480055.3,286046966.9,N
1634480075.1,286046967.5,N
1634480095.9,286046969.1,N
1634480115.7,286046971.8,N
1634480135.6,286046978.5,N
1634480155.4,286046982.0,N
1634480175.2,286046986.7,N
1634480195.1,286046987.9,N
1634480196.0,286046987.9,N
1634480215.8,286046992.7,N
1634480235.7,286046992.5,N
1634480255.5,286046994.1,N
1634480275.3,286046994.2,N
1634480295.2,286046994.3,N
1634480315.0,286046994.9,N
1634480315.9,286046994.9,N
1634480335.8,286046992.4,N
1634480355.6,286046992.4,N
1634480375.4,286046990.4,N
1634480395.3,286046990.5,N
1634480415.1,286046994.5,N
1634480435.9,286046990.5,N
1634480455.7,286046991.0,N
1634480475.5,286046991.3,N
1634480495.4,286046990.3,N
1634480515.2,286046994.4,N
1634480535.0,286046996.0,N
1634480535.9,286046996.0,N
1634480555.8,286046993.7,N
1634480575.6,286046994.4,N
1634480595.5,286046994.0,N
1634480615.3,286046989.6,N
1634480635.1,286046986.6,N
1634480655.9,286046989.7,N
1634480675.7,286046992.5,N
1634480695.5,286046995.7,N
1634480715.4,286046997.9,N
1634480735.2,286046998.1,N
1634480755.1,286047001.8,N
1634480756.0,286047001.8,N
1634480775.8,286047004.3,N
1634480795.7,286047002.9,N
1634480815.5,286047006.3,N
1634480835.3,286047011.1,N
1634480855.2,286047013.7,N
1634480875.0,286047012.8,N
1634480905.9,286047016.4,E
1634480915.9,286047010.8,N
1634480935.7,286046999.6,P
1634480955.5,286047000.7,N
1634480975.4,286046997.2,N
1634480995.2,286046994.4,N
1634481015.1,286046982.6,Y
1634481016.0,286046982.6,P
1634481035.8,286046978.7,N
1634481055.6,286046972.0,N
1634481075.5,286046963.4,Y
1634481095.3,286046977.8,P
1634481115.2,286046973.4,P
1634481135.9,286046971.5,P
1634481155.7,286046969.9,Y
1634481175.6,286046994.6,P
1634481195.4,286046993.3,N
1634481215.3,286047000.5,N
1634481235.1,286047002.6,N
1634481236.0,286047002.6,N
1634481255.8,286047004.2,N
1634481275.7,286046996.5,N
1634481295.5,286046992.4,N
1634481315.3,286046986.4,N
1634481335.2,286046981.7,N
1634481355.0,286046981.7,N
1634481355.9,286046981.7,N
1634481375.8,286046979.1,N
1634481395.6,286046984.9,N
1634481415.4,286046994.8,N
1634481435.3,286046999.2,N
1634481455.1,286046998.8,N
1634481475.8,286047001.7,N
1634481495.7,286047007.3,N
1634481515.5,286047010.5,N
1634481535.3,286047009.5,N
1634481555.2,286047014.0,N
1634481575.0,286047009.5,N
1634481575.9,286047009.5,N
1634481595.8,286047014.7,N
1634481615.6,286047005.4,N
1634481635.4,286047000.5,N
1634481655.3,286047000.3,N
1634481675.1,286046995.4,N
1634481695.8,286046991.2,N
1634481715.7,286046984.6,N
1634481735.5,286046981.1,N
1634481755.4,286046983.5,N
1634481775.2,286046987.2,N
1634481795.0,286046989.0,N
1634481795.9,286046989.0,N
1634481815.8,286046987.8,N
1634481835.6,286046988.5,N
1634481855.4,286046988.8,N
1634481875.3,286046991.5,N
1634481895.1,286046990.6,N
1634481915.9,286046988.7,N
1634481935.7,286046989.3,N
1634481955.5,286046985.5,N
1634481975.4,286046983.2,N
1634481995.2,286046976.2,N
1634482015.1,286046974.0,N
1634482016.0,286046974.0,N
1634482035.8,286046972.2,N
1634482055.6,286046967.3,N
1634482075.5,286046964.4,N
1634482095.3,286046958.0,Y
1634482115.1,286046964.9,P
1634482135.9,286046970.0,N
1634482155.7,286046973.6,N
1634482175.6,286046971.7,Y
1634482195.4,286046997.7,P
1634482215.2,286046991.9,N
1634482235.1,286046996.0,N
1634482236.0,286046996.0,N
1634482255.8,286047001.6,N
1634482275.6,286047008.7,N
1634482295.5,286047014.7,N
1634482315.3,286047024.5,N
1634482335.2,286047027.6,N
1634482355.9,286047030.9,N
1634482375.7,286047029.8,N
1634482395.6,286047027.7,N
1634482415.4,286047023.4,N
1634482435.2,286047019.3,N
1634482455.1,286047019.4,N
1634482456.0,286047019.4,N
1634482475.8,286047016.2,N
1634482495.7,286047016.4,N
1634482515.5,286047014.2,N
1634482535.3,286047013.0,N
1634482555.2,286047011.1,N
1634482575.0,286047011.7,N
1634482575.9,286047011.7,N
1634482595.7,286047010.1,N
1634482615.6,286047009.6,N
1634482635.4,286047007.9,N
1634482655.3,286047003.2,N
1634482675.1,286047002.5,N
1634482676.0,286047002.5,N
1634482695.8,286046999.7,N
1634482715.7,286047001.5,N
1634482735.5,286047007.4,N
1634482755.3,286047010.4,N
1634482775.2,286047007.6,N
1634482795.0,286047001.6,N
1634482795.9,286047001.6,N
